This is the latest recevied weather packets stored in our database for station/object WB5RFA. If no packets are shown the sender has not sent any weather packets the latest 10 day(s).
| Time | Temp. | Humidity | Pressure | Rain* | Wind** | Luminosity | Snow |
|---|---|---|---|---|---|---|---|
| 1778091673 | 13.89° C | 42% | 1018 hPa | 0 mm | - | - | - |
| 1778091192 | 13.33° C | 38% | 1018.3 hPa | 0 mm | - | - | - |
| 1778090711 | 13.33° C | 39% | 1018.3 hPa | 0 mm | - | - | - |
| 1778090233 | 13.33° C | 41% | 1018.3 hPa | 0 mm | - | - | - |
| 1778089753 | 13.33° C | 41% | 1018.4 hPa | 0 mm | - | - | - |
| 1778089272 | 13.33° C | 41% | 1018.4 hPa | 0 mm | - | - | - |
| 1778088791 | 13.33° C | 40% | 1018.4 hPa | 0 mm | - | - | - |
| 1778088313 | 13.89° C | 39% | 1018.4 hPa | 0 mm | - | - | - |
| 1778087831 | 13.89° C | 38% | 1018.4 hPa | 0 mm | - | - | - |
| 1778087352 | 13.89° C | 39% | 1018.4 hPa | 0 mm | - | - | - |
| 1778086873 | 13.89° C | 41% | 1018.4 hPa | 0 mm | - | - | - |
| 1778086391 | 13.89° C | 38% | 1018.4 hPa | 0 mm | - | - | - |
| 1778085912 | 13.89° C | 40% | 1018.4 hPa | 0 mm | - | - | - |
| 1778085431 | 13.89° C | 40% | 1018.3 hPa | 0 mm | - | - | - |
| 1778084952 | 13.33° C | 43% | 1018.3 hPa | 0 mm | - | - | - |
| 1778084472 | 12.78° C | 41% | 1018.3 hPa | 0 mm | - | - | - |
| 1778083993 | 13.33° C | 46% | 1018.2 hPa | 0 mm | - | - | - |
| 1778083512 | 12.78° C | 41% | 1018.2 hPa | 0 mm | - | - | - |
| 1778083031 | 13.33° C | 43% | 1018.1 hPa | 0 mm | - | - | - |
| 1778082552 | 13.33° C | 42% | 1017.9 hPa | 0 mm | - | - | - |
| 1778082071 | 13.33° C | 44% | 1017.9 hPa | 0 mm | - | - | - |
| 1778081592 | 13.33° C | 44% | 1017.7 hPa | 0 mm | - | - | - |
| 1778081112 | 13.33° C | 44% | 1017.7 hPa | 0 mm | - | - | - |
| 1778080631 | 13.33° C | 45% | 1017.7 hPa | 0 mm | - | - | - |
| 1778080153 | 12.78° C | 46% | 1017.7 hPa | 0 mm | - | - | - |
* Rain latest hour (hover to see other rain measurements)
** Current wind speed in m/s (hover to see current wind gust speed)